EWG1VH EDDH-LOWS

Flight info

Callsign EWG1VH
Flight time 1h 1m
Altitude 29000
Route AMLUH2C/05 AMLUH M852 DENIX DCT ZUCKA DCT SODRO T703 ARBAX T108 OSTES T700 BADIT BADIT2R
Aircraft A321/M-SDE3FGHIRWY/LB1

Departure

Time 2026-04-20 17:19
Airport Hamburg Helmut Schmidt Airport (EDDH)

Arrival

Time 2026-04-20 18:20
Airport Salzburg Airport (LOWS)
Time Latitude Longitude Altitude Speed Heading
2026-04-20 16:50 53.63331 10.00358 49 ft 0 kts 86°
2026-04-20 17:08 53.63329 10.00318 48 ft 4 kts 86°
2026-04-20 17:08 53.63328 10.00274 45 ft 4 kts 100°
2026-04-20 17:09 53.63339 10.00239 45 ft 4 kts 152°
2026-04-20 17:09 53.63356 10.00230 48 ft 0 kts 176°
2026-04-20 17:11 53.63334 10.00232 45 ft 6 kts 176°
2026-04-20 17:12 53.63293 10.00237 48 ft 12 kts 176°
2026-04-20 17:12 53.63191 10.00249 48 ft 17 kts 176°
2026-04-20 17:12 53.63074 10.00257 48 ft 17 kts 191°
2026-04-20 17:12 53.62969 10.00155 48 ft 19 kts 213°
2026-04-20 17:13 53.62880 10.00057 46 ft 12 kts 218°
2026-04-20 17:13 53.62792 9.99950 47 ft 20 kts 208°
2026-04-20 17:13 53.62668 9.99829 45 ft 18 kts 221°
2026-04-20 17:13 53.62623 9.99628 47 ft 20 kts 258°
2026-04-20 17:14 53.62594 9.99368 47 ft 25 kts 259°
2026-04-20 17:14 53.62560 9.99070 47 ft 26 kts 259°
2026-04-20 17:14 53.62526 9.98763 47 ft 27 kts 259°
2026-04-20 17:14 53.62491 9.98459 47 ft 24 kts 259°
2026-04-20 17:15 53.62459 9.98185 47 ft 24 kts 259°
2026-04-20 17:15 53.62436 9.97984 47 ft 12 kts 259°
2026-04-20 17:15 53.62429 9.97866 45 ft 8 kts 283°
2026-04-20 17:15 53.62431 9.97859 44 ft 0 kts 287°
2026-04-20 17:16 53.62434 9.97848 44 ft 5 kts 295°
2026-04-20 17:16 53.62484 9.97770 40 ft 11 kts 322°
2026-04-20 17:17 53.62537 9.97812 41 ft 9 kts 49°
2026-04-20 17:17 53.62541 9.97819 41 ft 0 kts 50°
2026-04-20 17:18 53.62542 9.97820 41 ft 1 kts 50°
2026-04-20 17:18 53.62632 9.98002 42 ft 55 kts 50°
2026-04-20 17:18 53.63030 9.98805 46 ft 121 kts 50°
2026-04-20 17:18 53.63625 10.00010 534 ft 134 kts 50°
2026-04-20 17:19 53.64216 10.01219 1337 ft 134 kts 53°
2026-04-20 17:19 53.64840 10.02495 1837 ft 150 kts 53°
2026-04-20 17:19 53.65548 10.03949 2093 ft 171 kts 54°
2026-04-20 17:19 53.66345 10.05583 2392 ft 187 kts 53°
2026-04-20 17:20 53.67186 10.07295 2851 ft 192 kts 52°
2026-04-20 17:20 53.68046 10.09046 3321 ft 196 kts 53°
2026-04-20 17:20 53.68922 10.10832 3813 ft 198 kts 53°
2026-04-20 17:20 53.69789 10.12602 4339 ft 199 kts 52°
2026-04-20 17:21 53.70640 10.14455 4819 ft 201 kts 62°
2026-04-20 17:21 53.70948 10.16745 5382 ft 205 kts 94°
2026-04-20 17:21 53.70446 10.19008 5911 ft 218 kts 123°
2026-04-20 17:21 53.69130 10.20522 6143 ft 247 kts 157°
2026-04-20 17:22 53.67419 10.21338 6500 ft 264 kts 160°
2026-04-20 17:22 53.65620 10.22154 7072 ft 271 kts 161°
2026-04-20 17:22 53.63789 10.22981 7753 ft 274 kts 161°
2026-04-20 17:22 53.61939 10.23815 8457 ft 277 kts 160°
2026-04-20 17:23 53.60067 10.24656 9155 ft 280 kts 161°
2026-04-20 17:23 53.58177 10.25506 9876 ft 282 kts 160°
2026-04-20 17:23 53.56264 10.26367 10471 ft 289 kts 161°
2026-04-20 17:23 53.54248 10.27284 10617 ft 311 kts 161°
2026-04-20 17:24 53.52089 10.28269 10751 ft 332 kts 161°
2026-04-20 17:24 53.49807 10.29300 11036 ft 344 kts 162°
2026-04-20 17:24 53.47476 10.30340 11567 ft 349 kts 162°
2026-04-20 17:24 53.45117 10.31387 12147 ft 352 kts 162°
2026-04-20 17:25 53.42735 10.32443 12733 ft 356 kts 162°
2026-04-20 17:25 53.40335 10.33508 13330 ft 359 kts 162°
2026-04-20 17:25 53.37908 10.34584 13902 ft 362 kts 161°
2026-04-20 17:25 53.35461 10.35671 14429 ft 365 kts 162°
2026-04-20 17:26 53.32992 10.36771 14944 ft 369 kts 162°
2026-04-20 17:26 53.30506 10.37883 15451 ft 372 kts 162°
2026-04-20 17:26 53.27995 10.39008 15960 ft 375 kts 162°
2026-04-20 17:26 53.25461 10.40138 16432 ft 379 kts 162°
2026-04-20 17:27 53.22895 10.41276 16918 ft 383 kts 162°
2026-04-20 17:27 53.20307 10.42420 17416 ft 386 kts 162°
2026-04-20 17:27 53.17699 10.43572 17911 ft 390 kts 163°
2026-04-20 17:27 53.15062 10.44735 18392 ft 393 kts 162°
2026-04-20 17:28 53.12402 10.45890 18804 ft 397 kts 164°
2026-04-20 17:28 53.09737 10.46883 19225 ft 400 kts 166°
2026-04-20 17:28 53.06996 10.47755 19640 ft 402 kts 167°
2026-04-20 17:28 53.04229 10.48559 20049 ft 405 kts 168°
2026-04-20 17:29 53.01436 10.49352 20465 ft 408 kts 168°
2026-04-20 17:29 52.98635 10.50161 20877 ft 410 kts 167°
2026-04-20 17:29 52.95812 10.51002 21270 ft 413 kts 167°
2026-04-20 17:29 52.92980 10.51868 21669 ft 416 kts 167°
2026-04-20 17:30 52.90128 10.52753 22088 ft 418 kts 167°
2026-04-20 17:30 52.87262 10.53643 22483 ft 420 kts 167°
2026-04-20 17:30 52.84376 10.54541 22875 ft 423 kts 167°
2026-04-20 17:30 52.81479 10.55441 23271 ft 425 kts 167°
2026-04-20 17:31 52.78555 10.56345 23665 ft 428 kts 167°
2026-04-20 17:31 52.75617 10.57248 23978 ft 431 kts 167°
2026-04-20 17:31 52.72662 10.58154 24307 ft 433 kts 167°
2026-04-20 17:31 52.69694 10.59063 24660 ft 435 kts 167°
2026-04-20 17:32 52.66710 10.59977 25014 ft 437 kts 167°
2026-04-20 17:32 52.63722 10.60888 25347 ft 438 kts 167°
2026-04-20 17:32 52.60718 10.61804 25686 ft 440 kts 167°
2026-04-20 17:32 52.57703 10.62719 26025 ft 441 kts 167°
2026-04-20 17:33 52.54675 10.63639 26356 ft 443 kts 167°
2026-04-20 17:33 52.51637 10.64565 26676 ft 445 kts 168°
2026-04-20 17:33 52.48582 10.65494 26965 ft 447 kts 168°
2026-04-20 17:33 52.45518 10.66419 27281 ft 449 kts 168°
2026-04-20 17:34 52.42435 10.67348 27595 ft 451 kts 168°
2026-04-20 17:34 52.39342 10.68282 27909 ft 453 kts 168°
2026-04-20 17:34 52.36242 10.69221 28217 ft 454 kts 168°
2026-04-20 17:34 52.33123 10.70165 28514 ft 456 kts 168°
2026-04-20 17:35 52.30001 10.71108 28801 ft 458 kts 168°
2026-04-20 17:35 52.26861 10.72055 29080 ft 459 kts 168°
2026-04-20 17:35 52.23715 10.72998 29364 ft 460 kts 168°
2026-04-20 17:35 52.20561 10.73939 29621 ft 462 kts 168°
2026-04-20 17:36 52.17402 10.74882 29874 ft 462 kts 168°
2026-04-20 17:36 52.14238 10.75826 30128 ft 462 kts 168°
2026-04-20 17:36 52.11116 10.76757 30161 ft 450 kts 168°
2026-04-20 17:37 52.05014 10.78576 30159 ft 444 kts 168°
2026-04-20 17:37 51.98954 10.80377 30158 ft 442 kts 168°
2026-04-20 17:38 51.92886 10.82159 30152 ft 444 kts 169°
2026-04-20 17:38 51.86855 10.84240 30161 ft 442 kts 157°
2026-04-20 17:39 51.81221 10.88232 30153 ft 442 kts 154°
2026-04-20 17:39 51.75611 10.92302 30146 ft 442 kts 155°
2026-04-20 17:40 51.70002 10.96373 30145 ft 442 kts 155°
2026-04-20 17:40 51.64391 11.00414 30143 ft 442 kts 155°
2026-04-20 17:41 51.58778 11.04447 30146 ft 442 kts 155°
2026-04-20 17:41 51.53109 11.08499 30139 ft 457 kts 155°
2026-04-20 17:42 51.47177 11.12721 30140 ft 469 kts 155°
2026-04-20 17:42 51.41150 11.17004 30136 ft 477 kts 155°
2026-04-20 17:43 51.35077 11.21319 30128 ft 478 kts 155°
2026-04-20 17:43 51.28990 11.25630 30128 ft 478 kts 155°
2026-04-20 17:44 51.22936 11.29893 30125 ft 480 kts 155°
2026-04-20 17:44 51.16815 11.34193 30137 ft 481 kts 155°
2026-04-20 17:45 51.10694 11.38478 30141 ft 481 kts 156°
2026-04-20 17:45 51.04569 11.42753 30155 ft 481 kts 155°
2026-04-20 17:46 50.98437 11.47030 30133 ft 482 kts 156°
2026-04-20 17:46 50.92285 11.51307 30128 ft 483 kts 156°
2026-04-20 17:47 50.86123 11.55571 30129 ft 484 kts 156°
2026-04-20 17:47 50.79951 11.59837 30133 ft 484 kts 156°
2026-04-20 17:48 50.73777 11.64101 30129 ft 485 kts 157°
2026-04-20 17:48 50.67589 11.68352 30119 ft 486 kts 157°
2026-04-20 17:49 50.61340 11.72633 30130 ft 487 kts 157°
2026-04-20 17:49 50.55104 11.76894 30085 ft 490 kts 157°
2026-04-20 17:50 50.48884 11.81127 30078 ft 491 kts 157°
2026-04-20 17:50 50.42601 11.85396 30087 ft 492 kts 157°
2026-04-20 17:51 50.36304 11.89654 30091 ft 493 kts 157°
2026-04-20 17:51 50.30001 11.93904 30098 ft 493 kts 157°
2026-04-20 17:52 50.23693 11.98147 30094 ft 493 kts 157°
2026-04-20 17:52 50.17386 12.02380 30107 ft 494 kts 158°
2026-04-20 17:53 50.11050 12.06617 30083 ft 496 kts 158°
2026-04-20 17:53 50.04699 12.10871 30091 ft 498 kts 158°
2026-04-20 17:54 49.98327 12.15118 30081 ft 499 kts 158°
2026-04-20 17:54 49.91938 12.19349 30082 ft 500 kts 158°
2026-04-20 17:55 49.85537 12.23570 30090 ft 501 kts 158°
2026-04-20 17:55 49.79121 12.27801 30097 ft 501 kts 158°
2026-04-20 17:56 49.73758 12.31387 30074 ft 503 kts 156°
2026-04-20 17:56 49.69806 12.35178 30062 ft 508 kts 144°
2026-04-20 17:56 49.66995 12.38485 30064 ft 509 kts 144°
2026-04-20 17:57 49.62258 12.44023 30066 ft 510 kts 144°
2026-04-20 17:57 49.56585 12.50615 30064 ft 511 kts 144°
2026-04-20 17:58 49.50902 12.57207 30069 ft 512 kts 144°
2026-04-20 17:58 49.45211 12.63785 30063 ft 513 kts 145°
2026-04-20 17:59 49.39856 12.71104 30053 ft 517 kts 138°
2026-04-20 17:59 49.34858 12.79062 30057 ft 520 kts 130°
2026-04-20 17:59 49.32434 12.83152 29850 ft 515 kts 140°
2026-04-20 18:00 49.29573 12.86259 29504 ft 496 kts 155°
2026-04-20 18:00 49.26447 12.88222 29201 ft 476 kts 168°
2026-04-20 18:00 49.23261 12.89085 28888 ft 456 kts 183°
2026-04-20 18:00 49.20140 12.88953 28431 ft 439 kts 193°
2026-04-20 18:01 49.17148 12.88436 27929 ft 433 kts 193°
2026-04-20 18:01 49.14174 12.87907 27428 ft 427 kts 193°
2026-04-20 18:01 49.11245 12.87379 26946 ft 422 kts 193°
2026-04-20 18:01 49.08336 12.86853 26343 ft 420 kts 192°
2026-04-20 18:02 49.05439 12.86331 25682 ft 420 kts 192°
2026-04-20 18:02 49.02540 12.85816 25011 ft 419 kts 192°
2026-04-20 18:02 48.99644 12.85310 24381 ft 418 kts 192°
2026-04-20 18:02 48.96757 12.84809 23763 ft 417 kts 191°
2026-04-20 18:03 48.93882 12.84314 23041 ft 415 kts 191°
2026-04-20 18:03 48.91013 12.83822 22336 ft 414 kts 191°
2026-04-20 18:03 48.88160 12.83330 21631 ft 412 kts 190°
2026-04-20 18:03 48.85320 12.82837 20936 ft 410 kts 190°
2026-04-20 18:04 48.82574 12.82363 20256 ft 393 kts 190°
2026-04-20 18:04 48.79914 12.81906 19582 ft 378 kts 191°
2026-04-20 18:04 48.77324 12.81460 18942 ft 372 kts 191°
2026-04-20 18:04 48.74736 12.81012 18294 ft 368 kts 191°
2026-04-20 18:05 48.69702 12.80134 16880 ft 363 kts 191°
2026-04-20 18:05 48.67184 12.79695 16189 ft 365 kts 191°
2026-04-20 18:05 48.64659 12.79256 15514 ft 365 kts 191°
2026-04-20 18:06 48.62134 12.78818 14851 ft 366 kts 191°
2026-04-20 18:06 48.59602 12.78383 14207 ft 366 kts 190°
2026-04-20 18:06 48.57074 12.77951 13514 ft 366 kts 191°
2026-04-20 18:06 48.54581 12.77526 12819 ft 365 kts 191°
2026-04-20 18:07 48.52069 12.77095 12130 ft 363 kts 191°
2026-04-20 18:07 48.49561 12.76665 11455 ft 362 kts 191°
2026-04-20 18:07 48.47067 12.76237 10793 ft 360 kts 191°
2026-04-20 18:07 48.44587 12.75815 10229 ft 356 kts 191°
2026-04-20 18:08 48.42176 12.75413 9992 ft 342 kts 191°
2026-04-20 18:08 48.39842 12.75276 9830 ft 331 kts 181°
2026-04-20 18:08 48.37601 12.75764 9688 ft 320 kts 171°
2026-04-20 18:08 48.35481 12.76548 9541 ft 307 kts 171°
2026-04-20 18:09 48.33443 12.77296 9402 ft 296 kts 171°
2026-04-20 18:09 48.31449 12.78020 9271 ft 294 kts 171°
2026-04-20 18:09 48.29465 12.78738 9135 ft 293 kts 171°
2026-04-20 18:09 48.27484 12.79454 9000 ft 293 kts 171°
2026-04-20 18:10 48.25505 12.80166 8869 ft 292 kts 171°
2026-04-20 18:10 48.23535 12.80875 8732 ft 291 kts 171°
2026-04-20 18:10 48.21568 12.81583 8604 ft 290 kts 170°
2026-04-20 18:10 48.19605 12.82289 8473 ft 290 kts 170°
2026-04-20 18:11 48.17642 12.82995 8341 ft 290 kts 170°
2026-04-20 18:11 48.15686 12.83698 8210 ft 289 kts 170°
2026-04-20 18:11 48.13735 12.84402 8081 ft 288 kts 170°
2026-04-20 18:11 48.11788 12.85107 7941 ft 287 kts 169°
2026-04-20 18:12 48.09848 12.85811 7825 ft 287 kts 169°
2026-04-20 18:12 48.07912 12.86512 7686 ft 286 kts 169°
2026-04-20 18:12 48.05984 12.87211 7563 ft 285 kts 169°
2026-04-20 18:12 48.04051 12.87909 7445 ft 285 kts 169°
2026-04-20 18:13 48.02198 12.88961 7307 ft 287 kts 152°
2026-04-20 18:13 48.00637 12.90823 7189 ft 289 kts 132°
2026-04-20 18:13 47.99530 12.93316 7061 ft 289 kts 114°
2026-04-20 18:13 47.98897 12.96158 6793 ft 291 kts 107°
2026-04-20 18:14 47.97987 12.98848 6424 ft 289 kts 127°
2026-04-20 18:14 47.96580 13.00934 6053 ft 285 kts 146°
2026-04-20 18:14 47.94817 13.02235 5615 ft 283 kts 165°
2026-04-20 18:14 47.92917 13.02844 5370 ft 275 kts 171°
2026-04-20 18:15 47.91076 13.03399 5231 ft 264 kts 170°
2026-04-20 18:15 47.89317 13.03939 5113 ft 253 kts 169°
2026-04-20 18:15 47.87626 13.04461 4998 ft 246 kts 169°
2026-04-20 18:15 47.85932 13.04985 4614 ft 252 kts 169°
2026-04-20 18:16 47.84227 13.05591 4317 ft 249 kts 167°
2026-04-20 18:16 47.82587 13.06183 4146 ft 237 kts 167°
2026-04-20 18:16 47.80992 13.06731 3807 ft 233 kts 167°
2026-04-20 18:16 47.79510 13.07416 3589 ft 212 kts 159°
2026-04-20 18:17 47.78202 13.08130 3461 ft 187 kts 162°
2026-04-20 18:17 47.77020 13.08723 3307 ft 174 kts 162°
2026-04-20 18:17 47.75891 13.09258 3141 ft 169 kts 164°
2026-04-20 18:17 47.74756 13.09737 2844 ft 171 kts 166°
2026-04-20 18:18 47.73583 13.10089 2583 ft 170 kts 188°
2026-04-20 18:18 47.72663 13.09225 2508 ft 160 kts 246°
2026-04-20 18:18 47.72613 13.07634 2455 ft 158 kts 283°
2026-04-20 18:18 47.72863 13.06058 2457 ft 156 kts 288°
2026-04-20 18:19 47.73395 13.04716 2551 ft 150 kts 315°
2026-04-20 18:19 47.74219 13.03746 2377 ft 150 kts 324°
2026-04-20 18:19 47.75114 13.03011 2191 ft 146 kts 339°
2026-04-20 18:19 47.76055 13.02460 1977 ft 146 kts 334°
2026-04-20 18:20 47.76981 13.01874 1770 ft 147 kts 334°
2026-04-20 18:20 47.77923 13.01284 1563 ft 146 kts 335°
2026-04-20 18:20 47.78841 13.00697 1422 ft 134 kts 337°
2026-04-20 18:20 47.79317 13.00400 1421 ft 31 kts 338°
2026-04-20 18:21 47.79417 13.00295 1423 ft 14 kts 270°
2026-04-20 18:21 47.79391 13.00186 1421 ft 10 kts 248°
2026-04-20 18:21 47.79362 13.00081 1423 ft 12 kts 246°
2026-04-20 18:21 47.79335 12.99992 1424 ft 10 kts 246°
2026-04-20 18:22 47.79280 12.99952 1420 ft 10 kts 169°
2026-04-20 18:22 47.79210 12.99995 1420 ft 12 kts 156°
2026-04-20 18:22 47.79156 13.00030 1424 ft 6 kts 156°
2026-04-20 18:22 47.79116 13.00056 1424 ft 7 kts 156°
2026-04-20 18:23 47.79082 13.00068 1421 ft 2 kts 218°
2026-04-20 18:23 47.79081 13.00041 1424 ft 4 kts 270°
2026-04-20 18:23 47.79086 12.99990 1420 ft 6 kts 281°
2026-04-20 18:23 47.79091 12.99960 1423 ft 0 kts 281°